Dewpoint
54 54 54 53 53 54 53 52 52 52 51 51 51 50 50 48 49 49 50 50 51 52 54 55 55 53 43 32 25 37 40 39 38 36 31 28 24 23 19 19 26 23 28 29 30 29 30
55 55 55 54 54 54 54 53 52 52 52 52 51 51 51 50 49 48 49 49 50 51 53 54 54 49 35 20 38 36 36 37 34 32 27 29 24 25 24 24 24 29 28 29 30 29 29
55 55 56 56 55 55 55 54 54 53 53 53 52 53 52 51 50 48 48 48 49 52 54 54 52 40 32 25 34 34 35 34 35 33 28 33 31 29 27 27 29 29 26 28 28 28 27
57 57 56 56 56 56 55 56 55 54 53 53 53 53 52 52 51 50 48 48 51 52 54 52 48 38 25 36 37 33 32 32 33 33 33 33 33 31 30 30 27 24 24 19 25 28 28
58 58 58 58 57 57 56 56 56 55 55 54 54 54 53 52 52 51 49 49 51 52 51 48 38 33 23 36 31 32 33 29 30 32 31 28 31 28 29 22 18 21 8 16 23 27 27
59 59 59 59 59 58 58 57 57 56 55 55 55 54 54 53 52 51 50 48 46 47 39 35 29 26 26 25 32 33 33 33 27 29 29 28 26 21 21 17 7 5 14 10 13 24 25
58 59 60 61 60 59 59 58 57 57 56 56 55 55 54 53 52 50 45 34 26 29 28 20 14 19 24 31 34 32 31 30 26 24 19 24 17 14 13 16 12 4 3 6 6 21 24
56 56 57 57 57 59 60 60 59 58 57 56 55 55 54 53 51 44 41 29 37 41 21 20 25 23 29 32 26 29 30 24 22 17 16 19 12 12 13 15 13 13 6 3 5 17 22
52 52 54 55 55 56 57 57 58 59 58 57 56 55 53 51 42 33 35 38 43 42 26 17 25 24 26 30 22 23 27 25 20 17 16 15 11 13 13 12 15 14 7 5 4 20 22
51 51 51 51 53 55 55 56 57 59 59 57 56 55 52 46 32 28 32 39 43 43 18 16 25 29 30 30 23 30 28 26 21 16 14 14 15 13 11 10 10 7 8 10 8 15 8
51 51 51 51 50 50 53 56 56 56 58 58 57 55 52 40 38 24 31 40 41 39 19 21 25 30 31 26 26 29 29 29 19 19 18 14 16 18 14 11 10 8 16 12 12 10 11
49 51 51 51 50 50 50 52 55 55 55 56 57 56 51 49 45 31 38 40 37 23 18 16 25 25 25 26 25 25 25 26 25 22 21 18 20 22 17 20 19 17 15 16 15 13 12
48 49 51 51 51 50 50 51 52 54 54 54 55 55 51 44 46 39 40 32 25 21 17 13 19 24 22 21 22 24 20 21 17 18 17 17 18 20 23 19 20 17 14 10 11 11 7
48 48 50 51 51 51 50 51 50 51 53 54 54 52 48 47 42 40 32 19 25 27 22 17 20 22 19 16 18 21 19 17 18 17 15 13 15 18 22 17 16 17 13 10 5 5 5
48 48 48 49 50 50 50 50 49 50 52 51 51 49 47 44 40 37 32 27 27 27 19 17 16 16 17 18 18 19 19 16 14 17 13 8 8 19 20 19 19 17 16 15 12 11 7
48 49 48 48 48 49 49 50 49 49 50 50 49 48 46 41 41 36 33 31 29 23 19 23 25 24 22 24 20 16 15 15 17 16 17 13 6 16 18 19 19 17 16 12 11 5 4
46 47 48 48 48 49 48 47 48 49 49 50 49 40 42 42 40 34 33 31 31 32 25 19 23 25 28 27 25 22 21 20 16 17 15 15 12 12 16 17 15 16 14 14 13 10 8
45 46 47 48 48 48 48 46 47 48 48 48 43 33 43 42 36 35 33 34 32 31 31 27 27 28 28 29 28 27 24 23 19 17 15 15 14 14 10 14 14 16 13 12 10 9 11
43 44 46 47 48 48 47 46 47 47 47 45 37 36 43 41 30 31 33 33 32 30 29 30 32 33 35 34 31 32 31 31 23 21 24 21 16 16 15 10 10 13 15 15 12 13 13
43 43 44 46 47 47 47 47 47 47 47 44 38 31 37 38 38 33 29 27 30 36 34 34 33 34 34 32 33 31 29 30 23 20 27 25 26 19 17 17 13 10 11 16 14 13 11
41 42 42 43 46 47 47 46 48 46 46 44 37 29 32 30 32 34 34 34 32 32 36 34 33 32 31 29 28 28 30 33 35 35 31 29 25 26 27 26 24 12 12 12 14 15 13
39 40 42 41 42 45 47 46 47 47 46 41 34 32 33 32 32 35 34 31 31 33 32 31 31 31 30 31 29 28 29 30 31 34 33 31 25 28 26 26 23 17 18 21 12 13 15
40 38 39 41 41 44 46 46 46 46 45 41 38 39 36 30 29 31 32 30 28 30 31 32 31 30 31 31 32 34 34 34 34 32 31 28 26 27 23 24 25 22 25 25 25 19 13
39 40 38 40 41 43 45 46 45 45 45 42 40 39 34 27 28 27 26 27 26 26 31 33 33 33 34 34 33 33 31 30 30 30 33 29 28 27 23 26 17 21 17 23 26 27 25
39 39 38 38 41 42 44 46 47 45 45 43 42 41 35 29 29 31 32 31 32 35 34 33 35 35 32 31 28 27 24 26 27 29 30 31 29 24 21 21 22 23 19 17 20 25 23
40 40 39 39 41 42 44 45 46 47 45 43 43 44 39 33 29 28 27 27 28 29 31 32 32 31 31 29 27 21 17 20 22 24 23 24 25 23 24 19 17 12 9 8 23 22 14
40 39 38 39 42 44 44 45 46 46 44 43 40 44 40 34 35 32 31 32 35 32 30 32 30 29 30 27 24 22 19 27 22 22 20 20 21 17 19 20 24 19 17 23 21 18 18
40 39 38 40 42 44 45 46 46 44 44 42 38 45 41 32 35 35 36 34 33 33 28 29 29 27 27 23 24 23 23 26 23 24 23 21 20 19 21 19 17 17 22 18 16 20 18
40 39 39 41 43 43 44 44 45 43 43 42 37 43 42 35 31 31 31 32 32 31 33 31 30 29 31 27 27 27 25 26 22 20 22 19 20 18 20 17 20 20 18 20 15 12 10
Wind_Speed
10 11 11 10 12 13 13 13 13 14 15 16 17 18 20 20 20 19 16 14 14 14 15 14 13 13 7 5 6 3 5 4 3 3 6 7 9 7 10 5 5 9 4 2 3 6 8
8 9 10 10 11 12 13 13 13 14 15 15 16 17 18 18 19 21 21 20 16 11 12 12 11 12 4 9 4 3 4 2 3 5 5 5 6 5 3 4 7 1 4 4 6 8 8
9 9 9 10 12 13 13 12 13 14 15 16 16 17 18 19 20 20 20 20 20 17 10 5 7 6 6 12 3 4 3 1 3 5 6 3 3 6 3 4 4 8 4 5 9 10 6
9 10 11 11 12 12 12 12 13 15 15 16 17 18 19 19 20 23 24 24 20 16 12 4 2 3 8 2 2 3 3 3 2 2 3 1 3 2 4 6 5 6 5 8 14 13 7
10 11 12 12 13 14 14 13 13 14 15 17 18 20 22 23 23 23 25 24 21 9 5 4 3 3 7 1 2 0 3 5 2 1 1 1 2 3 4 8 8 10 14 16 8 18 7
11 12 12 12 12 13 13 14 14 15 16 16 18 20 22 23 25 27 31 25 3 3 3 3 2 4 5 3 3 2 1 2 3 3 3 5 6 10 12 17 19 16 19 17 17 16 21
13 14 13 14 13 12 13 13 13 14 15 17 17 19 22 24 26 28 18 4 4 3 4 8 10 13 2 2 3 6 3 3 4 7 8 10 12 19 23 23 25 18 20 20 15 10 16
16 17 17 17 17 16 15 14 13 14 14 14 15 17 20 24 27 20 10 4 4 4 12 14 18 14 4 1 4 7 6 7 7 15 13 7 21 23 16 11 22 20 22 24 15 7 14
15 15 16 16 17 17 19 19 18 15 14 14 14 15 20 24 19 5 9 5 6 4 7 4 3 3 3 7 7 6 10 5 10 16 20 22 16 5 13 14 18 24 26 22 23 6 16
12 12 13 14 15 16 16 16 18 15 13 14 13 13 16 30 3 8 3 8 6 4 6 5 2 1 3 2 5 2 5 5 7 9 18 18 23 17 12 18 19 27 21 22 21 9 16
13 13 13 13 14 15 16 18 18 17 15 14 12 9 11 10 9 6 9 9 7 4 8 2 3 1 2 5 1 5 4 6 14 10 6 10 7 11 18 24 17 20 4 11 16 21 22
16 15 14 15 14 14 16 16 14 16 17 16 12 6 8 4 5 5 11 10 3 4 11 5 4 5 4 7 4 4 5 4 1 9 18 24 2 7 17 2 8 4 4 4 6 12 20
14 15 14 13 14 14 14 15 14 14 14 15 13 3 2 2 4 8 10 5 7 9 1 3 1 2 5 5 6 9 11 12 11 6 12 11 26 8 9 8 6 15 12 7 8 11 18
15 15 15 15 13 15 15 15 15 16 15 14 11 5 3 4 3 4 3 2 11 7 13 5 4 4 7 4 10 9 7 14 24 19 11 9 11 26 18 23 12 26 23 12 11 18 20
14 15 14 14 13 13 15 16 17 17 17 17 1 2 4 3 3 3 3 8 8 6 5 7 15 16 21 7 5 5 12 22 11 26 17 15 14 7 7 9 11 9 20 21 25 26 16
15 15 14 15 15 14 14 14 16 17 17 18 5 3 4 0 3 4 6 14 13 5 6 7 13 11 23 22 10 6 9 4 7 17 26 10 22 10 6 3 10 12 4 11 12 11 23
17 17 17 16 14 12 13 15 16 15 16 7 3 6 4 2 4 3 12 11 15 13 11 6 15 20 21 21 20 22 14 17 7 7 10 12 17 8 3 14 21 13 14 12 7 14 14
17 17 18 17 16 12 12 13 14 14 13 6 4 8 2 0 5 2 6 6 1 5 9 10 9 12 20 21 23 25 24 25 4 3 9 7 7 23 25 8 5 19 21 30 19 20 15
18 18 17 17 16 16 12 12 13 11 7 7 4 7 2 1 10 12 12 13 8 9 11 6 5 6 4 6 9 15 15 10 13 9 10 4 10 22 25 13 3 10 21 24 31 19 32
19 19 18 18 17 16 14 12 12 11 5 3 5 5 2 4 3 13 19 21 10 3 6 7 6 11 10 8 14 10 16 11 0 5 4 5 21 28 32 16 3 7 15 27 29 27 46
19 19 19 18 18 19 17 15 11 10 7 3 4 7 7 6 9 15 11 3 6 7 9 3 5 17 11 8 18 25 20 21 16 20 8 6 19 26 40 40 34 19 17 15 31 45 30
20 19 20 20 19 20 19 18 13 10 5 5 6 6 7 15 13 11 11 6 14 15 11 7 14 16 17 16 17 28 30 26 19 7 11 8 18 21 35 37 30 32 32 30 24 29 32
20 20 20 20 21 20 20 17 17 11 5 5 6 9 9 12 13 10 7 16 15 9 8 19 19 15 20 21 16 20 19 24 23 15 12 10 9 11 28 19 24 24 47 34 36 27 21
22 20 21 22 21 21 20 18 19 16 14 8 8 6 8 17 19 22 22 22 23 21 20 13 15 11 6 6 13 18 25 29 26 34 27 18 19 14 22 9 15 12 2 6 21 32 31
23 21 22 23 23 23 21 20 18 19 17 14 11 8 6 12 14 16 18 19 17 13 17 20 14 4 3 4 7 9 10 5 10 18 18 24 19 10 11 18 13 19 2 2 4 1 7
23 22 23 23 23 23 22 21 20 20 17 11 13 12 9 8 16 22 23 18 19 17 10 7 2 2 2 4 4 6 14 13 7 4 1 3 3 6 6 8 7 8 8 9 2 6 13
23 22 23 24 26 26 23 22 21 20 16 12 9 16 11 10 7 9 7 7 3 2 6 5 2 1 2 4 8 8 12 2 6 9 6 4 2 17 22 15 4 9 11 12 6 3 13
22 22 23 23 25 29 27 24 21 18 16 11 8 11 13 4 4 4 3 5 2 4 6 2 5 3 4 4 4 4 6 3 5 3 5 3 3 3 5 6 9 15 5 3 8 8 6
21 23 22 22 25 15 12 13 15 13 14 15 10 3 4 4 3 2 3 1 3 1 3 5 3 1 3 5 4 5 5 6 9 6 2 2 4 4 4 5 5 5 4 6 8 3 5
Wind_Direction
359 3 6 8 6 6 4 5 5 4 3 1 358 356 354 350 343 339 336 335 337 333 328 328 331 332 320 254 257 93 337 330 284 262 258 254 247 236 240 233 210 240 192 161 149 168 186
340 342 344 349 350 353 354 356 357 356 356 356 355 354 350 346 340 335 329 326 322 317 320 319 322 318 281 274 83 23 340 308 317 260 246 245 282 253 256 235 238 111 184 170 169 163 169
334 328 327 329 331 333 339 347 347 347 347 347 348 348 345 340 336 331 323 320 319 311 300 295 314 319 258 260 3 341 324 330 319 285 255 256 277 237 178 197 156 154 176 211 204 188 182
321 325 327 324 325 327 326 333 337 338 338 339 342 342 338 335 332 328 321 317 311 305 294 257 228 276 269 62 334 278 297 247 250 277 287 340 254 199 269 122 160 209 238 234 178 180 177
311 315 317 320 324 325 326 323 325 328 331 335 338 339 337 333 328 321 314 310 305 284 236 253 233 215 268 146 249 144 305 284 231 199 21 167 210 225 171 216 228 212 250 225 209 199 167
308 307 301 302 305 311 318 321 319 322 325 329 334 334 334 331 327 324 318 308 225 198 175 189 249 252 213 217 164 171 177 250 272 196 176 209 223 219 224 219 234 242 232 254 233 200 208
26 20 355 309 296 299 304 308 308 311 316 320 327 331 331 328 324 323 331 288 283 209 211 238 285 260 271 147 192 180 154 193 223 229 226 205 228 224 230 233 254 282 277 248 251 163 204
3 3 3 1 7 344 316 304 301 303 306 311 322 327 330 326 325 322 304 30 32 343 300 250 253 255 262 307 270 214 174 187 204 239 225 221 239 249 270 284 244 252 259 257 256 178 218
357 354 353 353 353 353 354 348 323 303 302 309 317 328 330 326 330 345 34 33 338 312 266 259 222 236 205 203 244 238 193 199 229 249 238 246 257 349 237 246 237 243 247 254 253 188 238
346 348 348 348 348 343 344 345 348 330 309 306 312 324 336 328 330 341 25 344 323 306 280 220 167 157 172 204 224 163 226 234 205 257 256 260 266 250 241 240 231 252 245 253 263 230 254
337 337 339 342 341 339 341 341 343 349 334 315 313 319 337 5 317 341 332 328 318 266 297 91 161 115 179 220 58 181 177 190 240 225 185 237 249 238 245 247 235 258 300 247 242 247 261
331 329 334 336 338 338 337 340 343 342 343 339 322 308 325 314 291 353 328 314 272 248 245 220 166 169 202 206 214 136 197 221 315 256 238 247 265 258 237 281 237 121 164 186 235 250 250
327 325 320 324 327 330 332 335 337 339 335 334 327 225 267 280 315 350 329 329 278 235 250 188 304 214 255 225 221 208 199 202 202 208 240 242 234 220 204 209 199 202 193 234 236 217 252
318 323 329 316 319 326 330 333 332 331 335 341 332 173 209 244 300 340 331 327 246 288 274 41 338 280 255 287 240 216 240 247 227 232 270 259 261 201 205 217 200 202 206 208 249 240 266
305 312 319 327 321 318 324 330 332 333 338 336 293 257 248 177 182 178 181 220 247 249 319 333 314 281 282 230 254 244 239 249 258 204 216 254 250 151 210 190 206 181 221 241 276 274 270
308 301 302 308 313 324 318 324 328 333 335 326 290 279 231 190 182 178 207 235 239 225 299 276 280 280 287 295 288 268 267 303 251 241 224 266 280 187 167 204 239 225 279 206 216 252 253
302 301 296 289 294 304 315 320 324 332 334 1 275 270 68 140 197 183 237 248 270 259 256 266 260 265 276 281 275 279 272 302 294 336 248 248 242 232 160 203 205 199 218 224 265 227 255
308 306 299 287 285 285 297 313 318 323 330 287 285 259 97 161 195 210 229 234 304 276 270 244 242 252 265 268 278 273 265 262 25 321 288 254 275 259 250 212 241 246 235 218 226 234 241
308 312 311 304 292 283 283 303 309 311 317 306 257 270 90 249 245 235 235 251 242 261 261 273 269 247 286 273 276 250 275 300 313 265 261 266 243 263 250 219 200 231 226 234 236 253 255
307 308 309 308 304 295 281 284 298 307 287 274 284 248 165 210 276 257 271 273 271 254 246 237 239 259 249 246 245 264 274 284 15 286 322 277 249 251 249 248 347 231 234 225 222 226 244
307 305 306 309 309 299 284 267 274 296 287 225 234 257 254 222 231 234 248 252 235 258 223 262 255 250 256 268 287 277 279 278 270 258 236 226 253 250 259 264 268 260 265 270 225 237 241
298 302 304 300 302 299 289 271 251 274 297 241 267 257 256 270 269 228 218 207 247 245 241 250 231 272 281 271 267 288 292 284 275 262 247 193 259 258 256 256 255 254 254 252 255 254 251
291 295 295 294 292 292 289 277 258 245 232 246 240 262 265 266 275 259 213 238 254 256 244 248 273 289 276 273 280 279 281 277 261 259 221 203 232 254 259 266 255 256 241 238 241 241 241
284 286 291 292 289 288 281 277 261 240 222 247 259 282 267 270 259 262 256 259 262 269 257 263 289 253 265 332 295 271 256 259 254 252 235 241 233 246 267 280 238 255 70 228 235 247 234
281 281 285 286 285 285 277 270 269 247 237 240 249 245 257 261 263 276 273 269 283 271 268 269 265 265 15 332 288 292 288 265 245 235 231 226 245 247 246 246 273 289 360 321 227 11 24
274 277 281 283 283 283 274 267 266 249 239 239 250 231 248 267 242 254 267 269 270 267 267 241 111 14 99 244 253 277 290 304 289 277 95 295 252 269 248 261 254 39 7 344 283 255 9
274 275 281 286 292 283 269 272 264 245 233 229 257 222 238 258 248 231 234 249 183 216 261 262 251 263 187 243 255 256 275 294 278 312 341 351 247 235 248 257 281 1 348 330 241 340 349
269 271 280 284 288 285 269 264 253 235 227 219 258 214 221 244 244 209 174 209 171 198 259 280 281 189 195 241 254 277 268 281 290 249 281 259 272 244 237 248 269 5 348 13 315 334 349
263 267 276 281 293 279 274 255 235 225 221 221 250 171 167 195 258 8 37 73 162 218 299 199 289 159 267 284 257 285 278 277 282 274 133 265 359 311 2 352 350 11 45 333 322 343 83